Total_Precipitation_Accumulation
0.00 0.01 0.04 0.04 0.04 0.07 0.08 0.09 0.13 0.21 0.20 0.26 0.39 0.51 0.73 0.89 1.11 1.27 1.30 1.27 1.34 1.55 1.86 2.16 2.54 2.89 3.10 3.25 3.36 3.68 3.90 3.61 3.12 2.70 2.19 1.99 1.93 1.74 1.54 1.41 1.30 1.35 1.28 1.40
0.01 0.02 0.03 0.02 0.03 0.04 0.07 0.09 0.15 0.20 0.17 0.23 0.38 0.66 0.83 0.91 0.93 1.01 1.11 1.07 1.09 1.30 1.40 1.49 1.71 2.04 2.13 2.34 2.66 3.03 3.28 3.12 2.59 2.36 2.14 2.00 1.93 1.80 1.74 1.59 1.52 1.35 1.31 1.36
0.01 0.02 0.02 0.02 0.02 0.04 0.07 0.08 0.11 0.15 0.15 0.23 0.39 0.91 1.02 0.90 0.81 0.71 0.83 0.88 0.86 0.94 1.05 1.04 1.12 1.29 1.59 2.06 2.21 2.27 2.54 2.74 2.49 2.36 2.27 2.16 2.07 1.88 1.92 1.83 1.66 1.34 1.22 1.25
0.01 0.01 0.01 0.02 0.02 0.03 0.06 0.07 0.06 0.08 0.11 0.35 0.47 0.93 1.05 0.92 0.90 0.72 0.69 0.68 0.58 0.56 0.73 0.87 0.89 0.95 1.14 1.47 1.75 2.00 2.26 2.44 2.38 2.26 2.05 1.87 1.69 1.60 1.60 1.63 1.64 1.50 1.37 1.21
0.01 0.01 0.01 0.02 0.02 0.02 0.03 0.03 0.05 0.08 0.15 0.33 0.45 0.79 1.01 0.84 0.98 0.74 0.47 0.35 0.31 0.32 0.43 0.60 0.71 0.80 0.84 1.04 1.44 1.86 2.21 2.44 2.33 2.04 1.87 1.86 1.75 1.70 1.63 1.56 1.74 1.62 1.54 1.34
0.01 0.01 0.02 0.02 0.02 0.02 0.02 0.04 0.12 0.21 0.34 0.66 0.65 0.66 0.94 0.72 0.56 0.42 0.31 0.23 0.24 0.27 0.32 0.41 0.46 0.56 0.70 0.85 1.11 1.45 1.78 2.02 2.04 1.88 1.78 1.82 1.85 1.82 1.68 1.49 1.49 1.41 1.42 1.37
0.06 0.06 0.03 0.02 0.02 0.03 0.02 0.04 0.20 0.42 0.69 0.87 0.52 0.68 1.03 0.61 0.44 0.32 0.26 0.24 0.23 0.21 0.28 0.40 0.44 0.46 0.54 0.64 0.81 1.06 1.33 1.49 1.69 1.79 1.78 1.73 1.83 1.83 1.64 1.46 1.41 1.43 1.31 1.24
0.09 0.15 0.06 0.02 0.02 0.02 0.03 0.04 0.09 0.17 0.29 0.45 0.51 1.13 0.99 0.44 0.29 0.25 0.22 0.23 0.20 0.20 0.23 0.37 0.47 0.46 0.46 0.50 0.67 0.81 1.00 1.22 1.45 1.62 1.67 1.65 1.58 1.46 1.45 1.54 1.44 1.39 1.37 1.32
0.03 0.04 0.03 0.02 0.02 0.02 0.03 0.04 0.06 0.06 0.09 0.29 0.62 0.81 0.54 0.27 0.25 0.28 0.25 0.26 0.24 0.27 0.33 0.40 0.50 0.52 0.41 0.42 0.52 0.58 0.78 0.96 1.11 1.33 1.45 1.39 1.42 1.33 1.32 1.37 1.35 1.29 1.40 1.41
0.02 0.01 0.02 0.02 0.02 0.03 0.03 0.03 0.04 0.04 0.06 0.20 0.47 0.72 0.74 0.47 0.36 0.32 0.31 0.33 0.31 0.35 0.46 0.49 0.47 0.50 0.43 0.41 0.48 0.57 0.71 0.82 0.90 1.08 1.15 1.08 1.28 1.29 1.40 1.37 1.28 1.21 1.21 1.25
0.02 0.01 0.01 0.02 0.03 0.04 0.05 0.04 0.03 0.04 0.05 0.10 0.32 0.51 0.56 0.52 0.47 0.35 0.32 0.37 0.42 0.41 0.52 0.51 0.46 0.49 0.45 0.45 0.50 0.56 0.69 0.77 0.83 0.96 1.00 1.06 1.15 1.19 1.25 1.30 1.31 1.28 1.22 1.21
0.02 0.02 0.01 0.03 0.05 0.04 0.07 0.08 0.08 0.07 0.05 0.07 0.14 0.27 0.29 0.35 0.41 0.35 0.34 0.42 0.47 0.35 0.37 0.44 0.46 0.52 0.42 0.43 0.48 0.52 0.59 0.65 0.70 0.86 1.01 1.06 1.17 1.19 1.17 1.22 1.41 1.41 1.36 1.35
0.02 0.02 0.02 0.07 0.13 0.10 0.07 0.07 0.08 0.08 0.06 0.06 0.11 0.23 0.23 0.24 0.36 0.34 0.39 0.45 0.45 0.43 0.38 0.47 0.54 0.50 0.43 0.44 0.48 0.53 0.58 0.62 0.66 0.76 0.90 1.04 1.13 1.20 1.29 1.44 1.60 1.68 1.61 1.59
0.03 0.02 0.02 0.07 0.15 0.21 0.16 0.08 0.07 0.07 0.06 0.05 0.09 0.17 0.23 0.31 0.36 0.35 0.39 0.46 0.46 0.46 0.38 0.43 0.58 0.58 0.49 0.46 0.51 0.54 0.64 0.70 0.79 0.98 1.11 1.20 1.36 1.50 1.58 1.60 1.70 1.73 1.76 1.80
0.03 0.02 0.02 0.03 0.07 0.11 0.11 0.08 0.08 0.07 0.06 0.06 0.08 0.13 0.24 0.35 0.39 0.39 0.40 0.45 0.47 0.42 0.42 0.54 0.67 0.73 0.69 0.64 0.61 0.64 0.78 0.90 1.10 1.31 1.36 1.39 1.48 1.60 1.74 1.91 1.95 1.96 1.98 1.94
0.05 0.04 0.05 0.05 0.07 0.09 0.07 0.07 0.07 0.06 0.06 0.06 0.09 0.15 0.25 0.36 0.39 0.35 0.35 0.36 0.42 0.46 0.48 0.55 0.75 0.92 0.95 0.93 0.91 0.95 1.06 1.25 1.51 1.78 1.87 1.94 2.01 2.08 2.14 2.18 2.18 2.25 2.26 2.21
0.14 0.14 0.13 0.11 0.10 0.11 0.09 0.09 0.08 0.08 0.09 0.10 0.14 0.21 0.32 0.44 0.42 0.46 0.45 0.43 0.54 0.59 0.64 0.68 0.84 0.98 1.09 1.10 1.11 1.22 1.31 1.49 1.71 1.88 1.96 2.05 2.12 2.20 2.25 2.27 2.30 2.25 2.24 2.19
0.34 0.29 0.23 0.18 0.21 0.22 0.13 0.15 0.17 0.19 0.21 0.24 0.25 0.31 0.38 0.46 0.47 0.52 0.54 0.52 0.55 0.65 0.78 0.80 0.90 1.00 1.05 1.15 1.26 1.36 1.40 1.45 1.68 1.85 1.93 1.96 2.00 2.05 2.17 2.28 2.23 2.14 2.12 2.10
0.42 0.47 0.42 0.31 0.28 0.28 0.28 0.26 0.27 0.34 0.41 0.38 0.51 0.57 0.52 0.53 0.56 0.58 0.60 0.75 0.73 0.70 0.75 0.80 0.93 0.99 1.06 1.11 1.16 1.13 1.18 1.29 1.43 1.51 1.61 1.67 1.78 1.94 2.07 2.15 2.19 2.19 2.12 1.97
0.33 0.37 0.42 0.44 0.45 0.43 0.42 0.45 0.36 0.40 0.70 0.69 0.75 0.83 0.76 0.76 0.89 0.83 0.62 0.61 0.67 0.70 0.71 0.78 0.91 0.97 1.02 1.07 1.08 1.10 1.18 1.35 1.53 1.65 1.73 1.82 1.92 2.04 2.05 2.14 2.24 2.24 2.17 2.12
0.47 0.49 0.47 0.47 0.51 0.53 0.48 0.44 0.44 0.74 1.00 0.99 1.06 1.08 0.98 1.00 1.00 0.90 0.72 0.63 0.62 0.68 0.71 0.76 0.87 1.01 1.04 1.08 1.16 1.29 1.41 1.52 1.65 1.71 1.75 1.80 1.86 1.95 2.03 2.16 2.14 2.17 2.15 2.07
0.67 0.68 0.65 0.68 0.84 0.97 0.73 0.65 0.85 1.02 0.80 0.85 1.03 1.23 1.23 1.16 1.06 0.93 0.78 0.65 0.59 0.57 0.63 0.78 0.88 0.99 1.09 1.20 1.34 1.45 1.47 1.53 1.63 1.77 1.84 1.83 1.88 1.92 1.94 1.99 1.96 1.95 1.92 1.85
0.77 0.86 0.94 0.98 1.14 1.05 0.88 0.89 0.85 0.94 1.07 1.12 1.22 1.40 1.41 1.25 1.10 1.02 0.88 0.73 0.65 0.64 0.68 0.76 0.86 0.99 1.09 1.23 1.36 1.48 1.55 1.66 1.72 1.81 1.90 1.98 1.99 1.99 2.03 2.11 2.13 2.01 1.90 1.81
0.81 0.71 0.89 1.18 1.32 1.15 0.99 0.97 0.95 1.03 1.21 1.26 1.23 1.23 1.21 1.15 1.07 1.14 1.14 0.95 0.89 0.86 0.86 0.86 0.91 0.96 1.07 1.19 1.31 1.44 1.52 1.61 1.75 1.82 1.84 1.92 2.01 2.07 2.10 2.11 2.06 1.94 1.82 1.73
0.84 0.87 1.03 1.40 1.59 1.53 1.34 1.21 1.13 1.16 1.14 1.21 1.14 1.16 1.14 1.10 1.05 1.09 1.19 1.21 1.11 0.98 0.93 0.94 0.98 1.01 1.05 1.16 1.26 1.43 1.53 1.58 1.67 1.80 1.84 1.83 1.84 1.89 1.94 1.95 1.89 1.77 1.68 1.60
0.91 1.09 1.36 1.73 1.74 1.82 1.70 1.40 1.25 1.30 1.26 1.22 1.17 1.24 1.27 1.19 1.11 1.11 1.20 1.23 1.18 1.06 0.99 0.98 1.00 1.03 1.07 1.15 1.27 1.34 1.50 1.68 1.77 1.78 1.71 1.63 1.54 1.53 1.55 1.52 1.54 1.59 1.47 1.45